Location: Alafon
(8.4500°N, 4.2333°E)
Time: 05:23:01
(UTC+00:00)

Vanguard 2 - Pass Details

Date: 03 August 2021
Orbit: 553 x 2937 km, 32.9° (Epoch: 24 September)

Event Time Altitude Azimuth Distance (km) Brightness Sun altitude
Rises 09:09:51 0° 315° (NW) 3,753 10.9 50.2°
Reaches altitude 10° 09:12:11 10° 322° (NW) 3,043 10.6 50.8°
Maximum altitude 09:19:42 49° 36° (NE) 2,000 11.2 52.5°
Drops below altitude 10° 09:32:05 10° 107° (ESE) 4,917 12.2 55.5°
Sets 09:36:55 0° 111° (ESE) 6,249 12.5 56.6°
